EW2255 Weather Reports


Display with metric or nautical units.
time (UTC)temp
F
wind
direction
speed
MPH
gust
MPH
rain 1hr
in
rain 24hr
in
rain mn
in
humidity
%
barometer
mb
20170523123531 43 209 0.0 1.0 0.00 0.00 0.00 97 1009.6
20170523123042 43 209 0.0 1.0 0.00 0.00 0.00 97 1009.6
20170523122526 42 209 0.0 2.0 0.00 0.00 0.00 97 1009.7
20170523122359 42 209 0.0 2.0 0.00 0.00 0.00 97 1010.0
20170523122029 42 209 1.0 3.0 0.00 0.00 0.00 97 1009.7
20170523121538 42 209 2.0 3.0 0.00 0.00 0.00 97 1009.6
20170523121041 42 196 1.0 2.0 0.00 0.00 0.00 97 1009.6
20170523120759 42 195 1.0 2.0 0.00 0.00 0.00 97 1009.9
20170523120544 42 195 1.0 2.0 0.00 0.00 0.00 97 1009.4
20170523120033 42 194 1.0 2.0 0.00 0.00 0.00 97 1009.5
20170523115535 42 155 1.0 2.0 0.00 0.00 0.00 97 1009.5
20170523115158 42 153 1.0 2.0 0.00 0.00 0.00 97 1009.8
20170523115038 42 152 1.0 2.0 0.00 0.00 0.00 97 1009.5
20170523114548 42 150 0.0 0.0 0.00 0.00 0.00 97 1009.5
20170523114032 42 150 0.0 0.0 0.00 0.00 0.00 97 1009.4
20170523113605 41 150 0.0 0.0 0.00 0.00 0.00 97 1009.7
20170523113536 42 150 0.0 0.0 0.00 0.00 0.00 97 1009.3
20170523113047 42 150 0.0 0.0 0.00 0.00 0.00 97 1009.3
20170523112529 41 150 0.0 0.0 0.00 0.00 0.00 97 1009.2
20170523112033 41 150 0.0 1.0 0.00 0.00 0.00 97 1009.3
20170523112001 41 150 0.0 1.0 0.00 0.00 0.00 97 1009.6
20170523111537 41 150 0.0 0.0 0.00 0.00 0.00 97 1009.3
20170523111049 40 150 0.0 0.0 0.00 0.00 0.00 97 1009.3
20170523110532 40 150 0.0 0.0 0.00 0.00 0.00 97 1009.2
20170523110402 39 150 0.0 0.0 0.00 0.00 0.00 97 1009.6
20170523110036 40 150 0.0 0.0 0.00 0.00 0.00 97 1009.1
20170523105545 39 150 0.0 0.0 0.00 0.00 0.00 97 1009.1
20170523104805 38 150 0.0 2.0 0.00 0.00 0.00 97 1009.5
20170523104534 39 150 0.0 3.0 0.00 0.00 0.00 97 1009.1
20170523104044 38 150 1.0 3.0 0.00 0.00 0.00 97 1009.0
20170523103527 38 159 1.0 3.0 0.00 0.00 0.00 97 1008.9
20170523103207 38 161 0.0 2.0 0.00 0.00 0.00 96 1009.3
20170523103031 38 161 0.0 2.0 0.00 0.00 0.00 96 1009.0
20170523102533 38 161 1.0 2.0 0.00 0.00 0.00 96 1009.0
20170523102044 39 161 0.0 1.0 0.00 0.00 0.00 97 1008.9
20170523101611 38 161 0.0 0.0 0.00 0.00 0.00 97 1009.3
20170523101527 39 161 0.0 0.0 0.00 0.00 0.00 97 1009.0
20170523101031 39 161 0.0 0.0 0.00 0.00 0.00 97 1009.0
20170523100046 38 161 0.0 2.0 0.00 0.00 0.00 96 1008.9
20170523100006 38 161 0.0 2.0 0.00 0.00 0.00 96 1009.3
20170523095529 38 161 0.0 2.0 0.00 0.00 0.00 96 1008.9
20170523095040 38 163 1.0 2.0 0.00 0.00 0.00 96 1008.8
20170523094543 39 168 0.0 0.0 0.00 0.00 0.00 96 1008.9
20170523094410 38 168 0.0 0.0 0.00 0.00 0.00 96 1009.2
20170523094029 39 168 0.0 0.0 0.00 0.00 0.00 96 1008.8
20170523093532 39 168 0.0 0.0 0.00 0.00 0.00 96 1008.8
20170523093044 39 168 0.0 0.0 0.00 0.00 0.00 96 1008.9
20170523092824 38 168 0.0 0.0 0.00 0.00 0.00 96 1009.2
20170523092526 39 168 0.0 1.0 0.00 0.00 0.00 96 1008.9
20170523092029 39 168 1.0 2.0 0.00 0.00 0.00 96 1008.9
20170523091539 40 169 1.0 2.0 0.00 0.00 0.00 96 1009.0
20170523091238 39 171 0.0 1.0 0.00 0.00 0.00 96 1009.3
20170523091026 40 171 0.0 1.0 0.00 0.00 0.00 96 1009.0
20170523090529 40 171 0.0 0.0 0.00 0.00 0.00 97 1009.0
20170523090042 40 171 0.0 0.0 0.00 0.00 0.00 96 1008.8
20170523085625 40 171 0.0 1.0 0.00 0.00 0.00 96 1009.0
20170523085544 40 171 0.0 1.0 0.00 0.00 0.00 97 1008.7
20170523085028 40 171 0.0 1.0 0.00 0.00 0.00 97 1008.6
20170523084542 40 171 0.0 0.0 0.00 0.00 0.00 97 1008.5
20170523084051 40 171 0.0 0.0 0.00 0.00 0.00 97 1008.5
20170523083825 39 171 0.0 0.0 0.00 0.00 0.00 96 1008.8
20170523083534 39 171 0.0 0.0 0.00 0.00 0.00 96 1008.4
20170523083039 40 171 0.0 0.0 0.00 0.00 0.00 96 1008.3
20170523082526 39 171 0.0 0.0 0.00 0.00 0.00 96 1008.4
20170523082232 39 171 0.0 0.0 0.00 0.00 0.00 96 1008.6
20170523082037 40 171 0.0 0.0 0.00 0.00 0.00 96 1008.3
20170523081527 40 171 0.0 0.0 0.00 0.00 0.00 96 1008.5
20170523081030 40 171 0.0 0.0 0.00 0.00 0.00 96 1008.6
20170523080540 40 171 0.0 1.0 0.00 0.00 0.00 96 1008.7
20170523080532 40 171 0.0 1.0 0.00 0.00 0.00 96 1009.0
20170523080044 40 171 0.0 1.0 0.00 0.00 0.00 96 1008.7
20170523075526 40 171 0.0 1.0 0.00 0.00 0.00 96 1008.7
20170523075038 40 171 0.0 1.0 0.00 0.00 0.00 96 1008.7
20170523074934 40 171 0.0 1.0 0.00 0.00 0.00 96 1009.0
20170523074541 40 171 0.0 1.0 0.00 0.00 0.00 96 1008.6
20170523074025 40 171 0.0 0.0 0.00 0.00 0.00 96 1008.6
20170523073529 40 171 0.0 0.0 0.00 0.00 0.00 96 1008.7
20170523073334 40 171 0.0 0.0 0.00 0.00 0.00 96 1009.1
20170523073040 40 171 0.0 0.0 0.00 0.00 0.00 96 1008.8
20170523072542 40 171 0.0 0.0 0.00 0.00 0.00 96 1008.8
20170523072026 40 171 0.0 1.0 0.00 0.00 0.00 96 1008.8
20170523071739 40 171 0.0 1.0 0.00 0.00 0.00 96 1009.1
20170523071535 40 171 0.0 1.0 0.00 0.00 0.00 96 1008.8
20170523071038 41 171 0.0 1.0 0.00 0.00 0.00 96 1008.7
20170523070543 41 171 0.0 0.0 0.00 0.00 0.00 96 1008.8
20170523070145 40 171 0.0 0.0 0.00 0.00 0.00 96 1009.1
20170523070027 41 171 0.0 0.0 0.00 0.00 0.00 96 1008.8
20170523065538 41 171 0.0 0.0 0.00 0.00 0.00 96 1008.8
20170523065042 41 171 0.0 0.0 0.00 0.00 0.00 96 1008.8
20170523064549 41 171 0.0 0.0 0.00 0.00 0.00 95 1009.0
20170523064526 41 171 0.0 0.0 0.00 0.00 0.00 95 1008.7
20170523064036 41 171 0.0 0.0 0.00 0.00 0.00 96 1008.7
20170523063542 42 171 0.0 0.0 0.00 0.00 0.00 96 1008.7
20170523063028 42 171 0.0 0.0 0.00 0.00 0.00 96 1008.8
20170523062949 41 171 0.0 0.0 0.00 0.00 0.00 96 1009.0
20170523062538 42 171 0.0 0.0 0.00 0.00 0.00 96 1008.6
20170523062041 42 171 0.0 0.0 0.00 0.00 0.00 96 1008.7
20170523061525 42 171 0.0 1.0 0.00 0.00 0.00 96 1008.8
20170523061356 41 171 0.0 1.0 0.00 0.00 0.00 96 1009.1
20170523061028 42 171 0.0 1.0 0.00 0.00 0.00 96 1008.9
20170523060538 42 171 0.0 1.0 0.00 0.00 0.00 96 1008.8
20170523060044 42 171 0.0 2.0 0.00 0.00 0.00 95 1008.8
20170523055757 41 171 0.0 2.0 0.00 0.01 0.00 96 1009.0
20170523055527 42 171 1.0 2.0 0.00 0.01 0.00 95 1008.8
20170523055038 42 175 1.0 2.0 0.00 0.01 0.00 95 1008.7
20170523054542 42 176 1.0 3.0 0.00 0.01 0.00 95 1008.8
20170523054208 42 180 2.0 3.0 0.00 0.01 0.00 95 1009.2
20170523054025 42 183 1.0 3.0 0.00 0.01 0.00 95 1008.9
20170523053537 43 190 2.0 3.0 0.00 0.01 0.00 95 1008.8
20170523053040 43 196 1.0 3.0 0.00 0.01 0.00 95 1008.9
20170523052605 42 198 2.0 3.0 0.00 0.01 0.00 96 1009.3
20170523052026 43 209 1.0 2.0 0.00 0.01 0.00 96 1009.2
20170523051538 43 211 1.0 2.0 0.00 0.01 0.00 96 1009.2
20170523051042 43 212 1.0 2.0 0.00 0.01 0.00 95 1009.2
20170523051012 42 212 0.0 2.0 0.00 0.01 0.00 95 1009.5
20170523050527 43 212 1.0 2.0 0.00 0.01 0.00 95 1009.2
20170523050038 43 212 0.0 3.0 0.00 0.01 0.00 96 1009.3
20170523045526 43 213 1.0 3.0 0.00 0.01 0.00 95 1009.2
20170523045417 42 213 1.0 3.0 0.00 0.01 0.00 95 1009.6
20170523045029 43 214 1.0 2.0 0.00 0.01 0.00 95 1009.2
20170523044539 43 214 0.0 2.0 0.00 0.01 0.00 95 1009.3
20170523044042 43 215 1.0 2.0 0.00 0.01 0.00 95 1009.4
20170523043807 42 215 0.0 2.0 0.00 0.01 0.00 95 1009.6
20170523043526 43 215 0.0 0.0 0.00 0.01 0.00 95 1009.3
20170523043030 43 215 0.0 1.0 0.00 0.01 0.00 95 1009.2
20170523042538 43 215 0.0 2.0 0.00 0.01 0.00 94 1009.2
20170523042211 43 215 1.0 2.0 0.00 0.01 0.00 95 1009.5
20170523042041 43 215 1.0 2.0 0.00 0.01 0.00 94 1009.2
20170523041550 44 215 0.0 0.0 0.00 0.01 0.00 94 1009.2
20170523041033 44 215 0.0 1.0 0.00 0.01 0.00 94 1009.2
20170523040614 43 215 0.0 1.0 0.00 0.01 0.00 94 1009.4
20170523040536 44 215 0.0 1.0 0.00 0.01 0.00 94 1009.2
20170523040043 44 215 0.0 0.0 0.00 0.01 0.00 94 1009.1
20170523035037 44 215 0.0 2.0 0.00 0.01 0.01 94 1009.4
20170523034544 45 215 0.0 2.0 0.00 0.01 0.01 94 1009.1
20170523034027 45 217 2.0 3.0 0.00 0.01 0.01 93 1009.0
20170523033538 45 221 2.0 3.0 0.00 0.01 0.01 93 1009.0
20170523033434 45 221 1.0 3.0 0.00 0.01 0.01 93 1009.3
20170523033042 46 221 1.0 1.0 0.00 0.01 0.01 93 1009.1
20170523032525 46 221 1.0 2.0 0.00 0.01 0.01 93 1009.0
20170523032036 47 221 2.0 2.0 0.00 0.01 0.01 92 1009.1
20170523031825 46 223 1.0 2.0 0.00 0.01 0.01 92 1009.3
20170523031540 47 223 2.0 3.0 0.00 0.01 0.01 92 1009.0
20170523031043 47 226 1.0 3.0 0.00 0.01 0.01 92 1009.0
20170523030526 48 229 0.0 3.0 0.00 0.01 0.01 92 1009.0
20170523030230 47 229 1.0 3.0 0.00 0.01 0.01 92 1009.3
20170523030037 48 229 0.0 0.0 0.00 0.01 0.01 92 1009.1
20170523025541 48 229 0.0 0.0 0.00 0.02 0.01 93 1009.1
20170523025025 48 229 0.0 0.0 0.00 0.02 0.01 92 1009.1
20170523024656 47 229 0.0 0.0 0.00 0.02 0.01 92 1009.5
20170523024537 48 229 0.0 0.0 0.00 0.02 0.01 92 1009.2
20170523024041 48 229 0.0 0.0 0.00 0.02 0.01 92 1009.2
20170523023525 48 229 0.0 0.0 0.00 0.02 0.01 92 1009.2
20170523023045 47 229 0.0 0.0 0.00 0.02 0.01 92 1009.6
20170523023032 48 229 0.0 0.0 0.00 0.02 0.01 92 1009.3
20170523022541 48 229 0.0 0.0 0.00 0.02 0.01 91 1009.2
20170523022025 48 229 0.0 0.0 0.00 0.02 0.01 91 1009.2
20170523021528 48 229 0.0 0.0 0.00 0.02 0.01 91 1009.2
20170523021443 48 229 0.0 0.0 0.00 0.02 0.01 91 1009.5
20170523020529 48 229 0.0 0.0 0.00 0.02 0.01 91 1009.1
20170523020032 49 229 0.0 0.0 0.00 0.02 0.01 90 1009.1
20170523015849 48 229 0.0 0.0 0.00 0.08 0.01 90 1009.3
20170523015541 49 229 0.0 0.0 0.00 0.08 0.01 90 1009.0
20170523015044 49 229 0.0 0.0 0.00 0.08 0.01 89 1008.9
20170523014528 49 229 0.0 2.0 0.00 0.08 0.01 88 1008.9
20170523014251 49 229 0.0 2.0 0.00 0.08 0.01 87 1009.2
20170523014030 49 229 0.0 2.0 0.00 0.08 0.01 87 1008.9
20170523013038 50 229 0.0 0.0 0.00 0.08 0.01 85 1008.8
20170523012648 49 229 0.0 0.0 0.00 0.08 0.01 85 1009.0
20170523012627 50 229 0.0 0.0 0.00 0.08 0.01 85 1008.7
20170523012048 50 229 0.0 1.0 0.00 0.08 0.01 85 1008.7
20170523011531 50 229 0.0 2.0 0.00 0.08 0.01 85 1008.7
20170523011042 49 229 0.0 2.0 0.00 0.08 0.01 84 1008.7
20170523010858 49 229 0.0 2.0 0.00 0.08 0.01 84 1008.9
20170523010552 49 229 0.0 2.0 0.00 0.08 0.01 84 1008.6
20170523010038 49 229 1.0 2.0 0.00 0.08 0.01 84 1008.5
20170523005542 50 229 0.0 4.0 0.00 0.10 0.01 83 1008.5
20170523005201 49 229 1.0 4.0 0.00 0.10 0.01 83 1008.8
20170523005043 50 229 2.0 4.0 0.00 0.10 0.01 83 1008.5
20170523004527 50 229 2.0 4.0 0.00 0.10 0.01 83 1008.5
20170523004038 50 229 2.0 3.0 0.00 0.10 0.01 82 1008.4
20170523003607 49 229 1.0 5.0 0.00 0.10 0.01 81 1008.7
20170523003029 50 229 4.0 5.0 0.00 0.10 0.01 81 1008.4
20170523002538 51 228 2.0 4.0 0.00 0.10 0.01 81 1008.4
20170523002043 51 227 3.0 5.0 0.00 0.10 0.01 81 1008.4
20170523002013 50 227 2.0 5.0 0.00 0.10 0.01 81 1008.7
20170523001527 51 227 4.0 6.0 0.00 0.10 0.01 80 1008.4
20170523001039 51 227 4.0 6.0 0.00 0.10 0.01 79 1008.4
20170523000544 52 227 3.0 5.0 0.00 0.10 0.01 78 1008.3
20170523000409 51 227 3.0 5.0 0.00 0.10 0.01 78 1008.6
20170523000028 52 227 3.0 5.0 0.00 0.10 0.01 77 1008.3
20170522235530 51 227 4.0 5.0 0.00 0.11 0.01 78 1008.3
20170522235040 52 226 2.0 4.0 0.00 0.11 0.01 78 1008.2
20170522234817 51 226 0.0 3.0 0.00 0.11 0.01 79 1008.5
20170522234544 51 226 1.0 3.0 0.00 0.11 0.01 79 1008.2
20170522234026 51 227 0.0 4.0 0.00 0.11 0.01 79 1008.2
20170522233536 51 226 2.0 3.0 0.00 0.11 0.01 79 1008.2
20170522233235 51 226 0.0 3.0 0.00 0.11 0.01 79 1008.5
20170522233041 51 226 0.0 4.0 0.00 0.11 0.01 79 1008.2
20170522232543 51 226 1.0 4.0 0.00 0.11 0.01 80 1008.1
20170522232033 51 227 1.0 4.0 0.00 0.11 0.01 80 1008.1
20170522231632 50 226 2.0 4.0 0.00 0.11 0.01 80 1008.3
20170522231537 51 226 2.0 4.0 0.00 0.11 0.01 80 1008.1
20170522231042 50 226 3.0 4.0 0.00 0.11 0.01 79 1008.1
20170522230525 50 226 1.0 4.0 0.00 0.11 0.01 80 1008.1
20170522230037 50 228 2.0 5.0 0.00 0.11 0.01 80 1008.0
20170522230024 50 228 2.0 5.0 0.00 0.11 0.01 80 1008.4
20170522225033 50 227 2.0 5.0 0.00 0.11 0.01 81 1008.0
20170522224545 50 228 1.0 5.0 0.00 0.11 0.01 81 1008.0
20170522224433 49 228 2.0 5.0 0.00 0.11 0.01 81 1008.3
20170522224031 50 225 3.0 5.0 0.00 0.11 0.01 82 1008.1
20170522223534 50 226 3.0 4.0 0.00 0.11 0.01 82 1008.0
20170522223039 49 226 2.0 4.0 0.00 0.11 0.01 82 1008.0
20170522222836 49 227 2.0 4.0 0.00 0.11 0.01 82 1008.3
20170522222529 49 227 3.0 5.0 0.00 0.11 0.01 82 1008.0
20170522222032 49 233 3.0 5.0 0.00 0.11 0.01 82 1007.9
20170522221537 49 249 4.0 7.0 0.00 0.11 0.01 82 1007.9
20170522221244 48 253 4.0 7.0 0.00 0.11 0.01 83 1008.2
20170522221048 48 254 4.0 7.0 0.00 0.11 0.01 84 1007.8
20170522220533 48 239 1.0 4.0 0.00 0.11 0.01 84 1007.8
20170522220039 48 261 3.0 4.0 0.00 0.11 0.01 83 1007.8
20170522215649 48 263 2.0 3.0 0.00 0.11 0.01 82 1008.1
20170522215547 48 262 2.0 3.0 0.00 0.11 0.01 82 1007.8
20170522215030 49 269 1.0 5.0 0.00 0.11 0.01 82 1007.8
20170522214534 50 272 4.0 9.0 0.00 0.11 0.01 80 1007.7
20170522214052 50 300 3.0 10.0 0.00 0.11 0.01 79 1008.0
20170522214038 50 300 4.0 10.0 0.00 0.11 0.01 79 1007.7
20170522213547 51 301 8.0 10.0 0.00 0.11 0.01 79 1007.7
20170522213033 51 312 7.0 10.0 0.00 0.11 0.01 78 1007.6
20170522212535 51 298 7.0 12.0 0.00 0.11 0.01 78 1007.7
20170522212445 51 305 6.0 12.0 0.00 0.11 0.01 78 1008.0
20170522212046 51 292 8.0 11.0 0.00 0.11 0.01 77 1007.6
20170522211625 52 298 7.0 11.0 0.00 0.11 0.01 76 1007.6
20170522211042 52 315 6.0 9.0 0.00 0.11 0.01 77 1007.5
20170522210711 51 319 6.0 9.0 0.00 0.11 0.01 77 1007.8
20170522210526 52 313 7.0 9.0 0.00 0.11 0.01 77 1007.5
20170522210031 52 311 5.0 8.0 0.00 0.11 0.01 78 1007.5
20170522205540 52 306 5.0 8.0 0.00 0.11 0.01 79 1007.5
20170522205115 51 311 3.0 6.0 0.00 0.11 0.01 79 1007.7
20170522205044 52 309 4.0 6.0 0.00 0.11 0.01 79 1007.4
20170522204526 52 307 4.0 6.0 0.00 0.11 0.01 78 1007.4
20170522204036 52 243 4.0 5.0 0.00 0.11 0.01 79 1007.4
20170522203539 51 231 3.0 4.0 0.00 0.11 0.01 79 1007.3
20170522203504 51 229 2.0 4.0 0.00 0.11 0.01 79 1007.6
20170522203027 51 228 3.0 4.0 0.00 0.11 0.01 81 1007.3
20170522202537 51 228 0.0 4.0 0.00 0.11 0.01 81 1007.3
20170522202040 51 228 2.0 5.0 0.00 0.11 0.01 82 1007.2
20170522201909 50 228 2.0 6.0 0.00 0.11 0.01 81 1007.5
20170522201543 50 228 4.0 6.0 0.00 0.11 0.01 82 1007.1
20170522201027 49 228 4.0 6.0 0.00 0.11 0.01 83 1007.1
20170522200537 48 232 4.0 5.0 0.00 0.11 0.01 86 1007.1
20170522200312 47 232 1.0 6.0 0.00 0.11 0.01 87 1007.3
20170522200043 48 232 1.0 6.0 0.00 0.11 0.01 87 1007.0
20170522195526 47 232 4.0 5.0 0.00 0.11 0.01 87 1007.0
20170522195037 48 232 1.0 4.0 0.00 0.11 0.01 87 1006.9
20170522194718 47 232 1.0 5.0 0.00 0.11 0.01 87 1007.2
20170522194541 48 232 1.0 5.0 0.00 0.11 0.01 87 1006.8
20170522194024 48 232 3.0 6.0 0.00 0.11 0.01 87 1006.8
20170522193527 48 229 4.0 6.0 0.00 0.11 0.01 87 1006.8
20170522193025 48 229 4.0 9.0 0.00 0.11 0.01 87 1006.8
20170522193017 47 228 4.0 9.0 0.00 0.11 0.01 87 1007.2
20170522192528 47 242 8.0 10.0 0.00 0.11 0.01 86 1006.8
20170522192032 47 252 7.0 9.0 0.00 0.11 0.01 85 1006.8
20170522191543 47 234 5.0 6.0 0.00 0.11 0.01 85 1006.8
20170522191422 47 236 4.0 6.0 0.00 0.11 0.01 85 1007.1
20170522191026 48 234 4.0 8.0 0.00 0.11 0.01 86 1006.7
20170522190531 48 234 5.0 9.0 0.00 0.11 0.01 85 1006.7
20170522190043 48 245 5.0 9.0 0.00 0.11 0.01 85 1006.6
20170522185850 47 242 6.0 10.0 0.00 0.11 0.01 85 1007.0
20170522185525 48 240 7.0 10.0 0.00 0.11 0.01 84 1006.7
20170522185028 48 229 7.0 10.0 0.00 0.11 0.01 84 1006.7
20170522184532 48 232 8.0 12.0 0.00 0.11 0.01 84 1006.6
20170522184233 48 226 8.0 13.0 0.00 0.11 0.01 83 1007.0
20170522184024 49 232 8.0 15.0 0.00 0.11 0.01 82 1006.7
20170522183527 49 240 11.0 17.0 0.00 0.11 0.01 81 1006.7
20170522183040 48 240 13.0 17.0 0.00 0.11 0.01 82 1006.7
20170522182540 48 230 9.0 14.0 0.00 0.11 0.01 82 1007.0
20170522182524 48 240 9.0 12.0 0.00 0.11 0.01 82 1006.6
20170522182035 49 230 9.0 12.0 0.00 0.11 0.01 82 1006.6
20170522181537 49 217 8.0 11.0 0.00 0.11 0.01 82 1006.6
20170522181048 49 232 8.0 10.0 0.00 0.11 0.01 82 1006.5
20170522180934 48 229 7.0 9.0 0.00 0.11 0.01 82 1006.8
20170522180530 49 227 7.0 11.0 0.00 0.11 0.01 83 1006.4
20170522180037 49 242 7.0 12.0 0.00 0.11 0.01 82 1006.4
20170522175539 49 242 9.0 12.0 0.00 0.11 0.01 82 1006.4
20170522175341 49 255 9.0 12.0 0.00 0.11 0.01 82 1006.7
20170522175049 49 233 7.0 0.0 0.00 0.00 0.01 82 1006.2
20170522174529 49 231 7.0 10.0 0.00 0.11 0.01 83 1006.3
20170522174032 49 232 7.0 10.0 0.00 0.11 0.01 84 1006.3
20170522173738 48 229 7.0 9.0 0.00 0.11 0.01 85 1006.7
20170522173537 48 231 7.0 9.0 0.00 0.11 0.01 85 1006.3
20170522173043 48 231 8.0 9.0 0.00 0.11 0.01 85 1006.4
20170522172530 48 238 4.0 6.0 0.00 0.11 0.01 85 1006.4
20170522172040 48 232 2.0 6.0 0.00 0.11 0.01 86 1006.4
20170522172031 47 232 2.0 6.0 0.00 0.11 0.01 86 1006.7
20170522171543 48 232 3.0 6.0 0.00 0.11 0.01 86 1006.4
20170522171027 48 236 3.0 5.0 0.00 0.11 0.01 86 1006.4
20170522170532 47 221 3.0 6.0 0.00 0.11 0.01 87 1006.3
20170522170449 47 221 1.0 6.0 0.00 0.11 0.01 87 1006.7
20170522170029 47 223 4.0 8.0 0.00 0.11 0.01 87 1006.3
20170522165534 47 258 4.0 11.0 0.00 0.11 0.01 86 1006.3
20170522165034 48 257 8.0 12.0 0.00 0.11 0.01 84 1006.3
20170522164847 47 257 9.0 12.0 0.00 0.11 0.01 85 1006.7
20170522164038 48 246 9.0 12.0 0.00 0.11 0.01 86 1006.2
20170522163543 47 248 8.0 12.0 0.00 0.11 0.01 87 1006.3
20170522163153 47 246 7.0 11.0 0.00 0.11 0.01 86 1006.6
20170522163025 47 242 8.0 11.0 0.00 0.11 0.01 86 1006.2
20170522162534 47 246 9.0 10.0 0.00 0.11 0.01 88 1006.2
20170522162038 47 246 6.0 8.0 0.00 0.11 0.01 88 1006.2
20170522161606 46 247 6.0 11.0 0.00 0.11 0.01 88 1006.6
20170522161538 47 249 6.0 11.0 0.00 0.11 0.01 88 1006.2
20170522161030 47 250 7.0 13.0 0.00 0.11 0.01 87 1006.2
20170522160543 48 253 11.0 13.0 0.00 0.11 0.01 86 1006.2
20170522160027 47 257 8.0 12.0 0.00 0.11 0.01 88 1006.1
20170522155852 47 232 6.0 8.0 0.00 0.18 0.01 88 1006.5
20170522155529 47 234 3.0 7.0 0.00 0.18 0.01 89 1006.1
20170522155041 47 231 4.0 7.0 0.00 0.18 0.01 89 1006.1
20170522154545 47 229 5.0 7.0 0.00 0.18 0.01 90 1006.1
20170522154248 47 228 5.0 7.0 0.00 0.18 0.01 89 1006.4
20170522154027 47 228 5.0 7.0 0.00 0.18 0.01 90 1006.0
20170522153534 47 228 4.0 9.0 0.00 0.18 0.01 92 1006.1
20170522153041 46 224 6.0 9.0 0.00 0.18 0.01 93 1006.1
20170522152705 45 239 3.0 6.0 0.00 0.18 0.01 93 1006.5
20170522152523 45 239 3.0 6.0 0.00 0.18 0.01 93 1006.1
20170522151537 46 234 5.0 8.0 0.00 0.18 0.01 92 1006.1
20170522151101 45 227 5.0 8.0 0.00 0.18 0.01 93 1006.4
20170522151042 46 227 5.0 7.0 0.00 0.18 0.01 93 1006.1
20170522150527 46 241 5.0 7.0 0.00 0.18 0.01 92 1006.1
20170522150039 46 235 6.0 8.0 0.00 0.18 0.01 93 1006.2
20170522145540 46 234 5.0 10.0 0.00 0.26 0.01 93 1006.2
20170522145457 45 234 5.0 10.0 0.00 0.26 0.01 92 1006.5
20170522145023 46 236 8.0 10.0 0.00 0.26 0.01 93 1006.2
20170522144533 46 226 8.0 12.0 0.00 0.26 0.01 93 1006.2
20170522144035 46 241 10.0 12.0 0.00 0.26 0.01 93 1006.2
20170522143902 45 243 9.0 12.0 0.00 0.26 0.01 93 1006.6
20170522143524 46 240 9.0 11.0 0.00 0.26 0.01 93 1006.3
20170522143036 45 236 9.0 13.0 0.00 0.26 0.01 94 1006.3
20170522142538 45 246 11.0 13.0 0.00 0.26 0.01 94 1006.3
20170522142201 45 239 7.0 10.0 0.00 0.26 0.01 94 1006.6
20170522142042 45 240 8.0 10.0 0.00 0.26 0.01 94 1006.3
20170522141525 45 240 9.0 13.0 0.00 0.26 0.01 94 1006.2
20170522141035 45 238 11.0 13.0 0.00 0.26 0.01 95 1006.2
20170522140603 45 240 10.0 11.0 0.00 0.26 0.01 95 1006.5
20170522140539 45 241 10.0 11.0 0.00 0.26 0.01 95 1006.2
20170522140050 45 236 8.0 11.0 0.00 0.26 0.01 95 1006.2
20170522135531 45 232 8.0 10.0 0.00 0.27 0.01 95 1006.2
20170522134959 45 240 8.0 11.0 0.00 0.27 0.01 95 1006.6
20170522134537 46 232 9.0 11.0 0.00 0.27 0.01 95 1006.2
20170522134048 46 232 9.0 11.0 0.00 0.27 0.01 95 1006.2
20170522133530 45 234 8.0 10.0 0.00 0.27 0.01 96 1006.2
20170522133359 45 236 7.0 10.0 0.00 0.27 0.01 95 1006.6
20170522133034 45 235 7.0 10.0 0.00 0.27 0.01 95 1006.3
20170522132543 45 232 8.0 11.0 0.00 0.27 0.01 96 1006.3
20170522132028 45 231 8.0 10.0 0.00 0.27 0.01 96 1006.3
20170522131802 44 234 7.0 10.0 0.00 0.27 0.01 96 1006.6
20170522131531 45 235 6.0 11.0 0.00 0.27 0.01 95 1006.3
20170522131048 45 239 7.0 11.0 0.00 0.27 0.01 95 1006.3
20170522130530 45 235 9.0 11.0 0.00 0.27 0.01 96 1006.3
20170522130110 45 237 9.0 12.0 0.00 0.27 0.01 96 1006.7
20170522130034 45 236 9.0 12.0 0.00 0.27 0.01 96 1006.3
20170522125534 45 234 10.0 12.0 0.00 0.32 0.01 95 1006.3
20170522125025 45 234 9.0 12.0 0.00 0.32 0.01 95 1006.3
20170522124527 45 235 8.0 11.0 0.00 0.32 0.01 94 1006.3
20170522124516 44 234 6.0 11.0 0.00 0.32 0.01 94 1006.7
20170522124030 45 242 9.0 13.0 0.00 0.32 0.01 94 1006.3